This demonstration page uses our WeatherBlox Daily Observations layout. Learn more.

40.92945, -100.16068

Hourly Observations for May 27, 2018

Temp ( °F °C ) Dew Point ( °F °C ) Humidity (%) Winds ( mph kmh ) Pressure ( in mb ) Visibility ( mi km ) Precip ( " mm )
12:15 am 00:15 Clear 74 23.1 58 14.3 58 58 S 9 15 29.71 1006 10 16.0934 0 0
12:35 am 00:35 Clear 74 23.6 57 13.8 54 54 S 10 17 29.71 1006 10 16.0934 0 0
12:55 am 00:55 Clear 75 23.8 56 13.3 52 52 S 13 20 29.71 1006 10 16.0934 0 0
1:15 am 01:15 Clear 74 23.5 56 13.3 53 53 S 12 19 29.71 1006 10 16.0934 0 0
1:35 am 01:35 Clear 73 23 55 13 53 53 S 12 19 29.71 1006 10 16.0934 0 0
1:55 am 01:55 Clear 73 22.6 55 13 55 55 S 12 19 29.71 1006 10 16.0934 0 0
2:15 am 02:15 Clear 73 22.5 55 12.8 54 54 S 12 19 29.71 1006 10 16.0934 0 0
2:55 am 02:55 Clear 73 22.8 55 12.6 53 53 S 10 17 29.71 1006 10 16.0934 0 0
3:15 am 03:15 Clear 73 22.6 55 12.5 53 53 SSW 13 20 29.71 1006 10 16.0934 0 0
3:35 am 03:35 Clear 73 22.6 55 12.5 53 53 S 13 20 29.71 1006 10 16.0934 0 0
3:55 am 03:55 Clear 72 22 55 12.6 55 55 S 12 19 29.71 1006 10 16.0934 0 0
4:15 am 04:15 Clear 71 21.4 55 13 59 59 S 8 13 29.77 1008 10 16.0934 0 0
4:35 am 04:35 Clear 70 21.2 56 13.2 60 60 S 9 15 29.77 1008 10 16.0934 0 0
4:55 am 04:55 Clear 69 20.5 57 13.7 65 65 S 8 13 29.77 1008 10 16.0934 0 0
5:15 am 05:15 Clear 71 21.4 57 13.7 62 62 S 12 19 29.77 1008 10 16.0934 0 0
5:35 am 05:35 Clear 70 21.2 57 14.1 64 64 S 10 17 29.77 1008 10 16.0934 0 0
5:55 am 05:55 Clear 70 21.1 58 14.5 66 66 S 10 17 29.77 1008 10 16.0934 0 0
6:15 am 06:15 Sunny 70 21 58 14.6 67 67 S 9 15 29.77 1008 10 16.0934 0 0
6:35 am 06:35 Sunny 69 20.3 59 15 72 72 S 9 15 29.77 1008 10 16.0934 0 0
6:55 am 06:55 Sunny 69 20.5 60 15.3 72 72 S 9 15 29.77 1008 10 16.0934 0 0
7:15 am 07:15 Sunny 70 21.1 61 16 73 73 S 10 17 29.77 1008 10 16.0934 0 0
7:35 am 07:35 Sunny 72 22 62 16.7 72 72 S 10 17 29.8 1009 10 16.0934 0 0
7:55 am 07:55 Sunny 72 22.1 63 17.1 73 73 S 12 19 29.8 1009 10 16.0934 0 0
8:15 am 08:15 Sunny 72 22.1 63 17.4 75 75 S 10 17 29.8 1009 10 16.0934 0 0
8:35 am 08:35 Sunny 72 22.1 64 17.6 76 76 S 10 17 29.8 1009 10 16.0934 0 0
8:55 am 08:55 Sunny 75 23.7 65 18.6 73 73 S 10 17 29.77 1008 10 16.0934 0 0
9:15 am 09:15 Sunny 77 25 66 18.7 68 68 SSW 15 24 29.77 1008 10 16.0934 0 0
9:35 am 09:35 Sunny 77 25.1 65 18.2 66 66 SSW 18 30 29.77 1008 10 16.0934 0 0
9:55 am 09:55 Sunny 78 25.3 65 18.5 66 66 SW 15 24 29.77 1008 10 16.0934 0 0
10:15 am 10:15 Sunny 80 26.6 67 19.2 64 64 SSW 10 17 29.74 1007 10 16.0934 0 0
10:35 am 10:35 Sunny 82 27.5 66 19 60 60 SSW 16 26 29.74 1007 10 16.0934 0 0
10:55 am 10:55 Sunny 83 28.4 65 18.3 54 54 SSW 18 30 29.74 1007 10 16.0934 0 0
11:15 am 11:15 Sunny 84 29.1 65 18.5 53 53 S 14 22 29.74 1007 10 16.0934 0 0
11:35 am 11:35 Sunny 84 29.1 60 15.8 45 45 S 18 30 29.74 1007 10 16.0934 0 0
11:55 am 11:55 Sunny 87 30.4 61 15.9 42 42 S 17 28 29.71 1006 10 16.0934 0 0
12:15 pm 12:15 Sunny 86 29.8 56 13.6 37 37 S 18 30 29.71 1006 10 16.0934 0 0
12:35 pm 12:35 Sunny 87 30.5 56 13.1 34 34 S 16 26 29.71 1006 10 16.0934 0 0
12:55 pm 12:55 Sunny 88 31.1 57 13.8 35 35 SSE 21 33 29.71 1006 10 16.0934 0 0
1:15 pm 13:15 Sunny 87 30.6 57 14.1 37 37 S 21 33 29.71 1006 10 16.0934 0 0
1:35 pm 13:35 Sunny 88 31.2 58 14.5 36 36 S 22 35 29.68 1005 10 16.0934 0 0
1:55 pm 13:55 Sunny 90 32.4 56 13.3 31 31 S 22 35 29.68 1005 10 16.0934 0 0
2:15 pm 14:15 Sunny 91 32.5 56 13.5 31 31 S 21 33 29.68 1005 10 16.0934 0 0
2:35 pm 14:35 Sunny 91 32.6 58 14.2 33 33 S 18 30 29.68 1005 10 16.0934 0 0
2:55 pm 14:55 Sunny 89 31.8 58 14.7 35 35 SSE 21 33 29.65 1004 10 16.0934 0 0
3:15 pm 15:15 Sunny 90 32.1 56 13.6 32 32 SSE 22 35 29.65 1004 10 16.0934 0 0
3:35 pm 15:35 Sunny 90 32.2 57 13.8 33 33 S 21 33 29.65 1004 10 16.0934 0 0
3:55 pm 15:55 Sunny 91 32.7 58 14.5 33 33 S 20 31 29.62 1003 10 16.0934 0 0
4:15 pm 16:15 Sunny 91 32.5 55 12.9 30 30 SSE 20 31 29.62 1003 10 16.0934 0 0
4:35 pm 16:35 Sunny 91 32.5 56 13.1 31 31 SSE 21 33 29.62 1003 10 16.0934 0 0
4:55 pm 16:55 Sunny 91 32.5 55 12.5 29 29 SSE 23 37 29.59 1002 10 16.0934 0 0
5:15 pm 17:15 Sunny 91 32.7 55 12.8 30 30 SSE 22 35 29.59 1002 10 16.0934 0 0
5:35 pm 17:35 Sunny 90 32.2 56 13.2 31 31 SE 17 28 29.59 1002 10 16.0934 0 0
5:55 pm 17:55 Partly Cloudy 88 31.3 55 13 33 33 SSE 20 31 29.62 1003 10 16.0934 0 0
6:15 pm 18:15 Sunny 88 30.9 54 12.1 31 31 SSE 21 33 29.62 1003 10 16.0934 0 0
6:35 pm 18:35 Sunny 87 30.5 54 12 32 32 SE 14 22 29.59 1002 10 16.0934 0 0
6:55 pm 18:55 Sunny 86 30.2 55 12.7 34 34 SE 14 22 29.62 1003 10 16.0934 0 0
7:15 pm 19:15 Sunny 86 30.1 55 13 35 35 SE 15 24 29.62 1003 10 16.0934 0 0
7:35 pm 19:35 Sunny 86 29.8 56 13.5 37 37 SE 14 22 29.62 1003 10 16.0934 0 0
7:55 pm 19:55 Sunny 85 29.6 52 11.2 32 32 SE 16 26 29.62 1003 10 16.0934 0 0
8:15 pm 20:15 Sunny 85 29.3 50 9.9 30 30 SE 15 24 29.65 1004 10 16.0934 0 0
8:35 pm 20:35 Sunny 84 28.8 50 10.2 31 31 SE 13 20 29.65 1004 10 16.0934 0 0
8:55 pm 20:55 Sunny 83 28.4 52 11 34 34 SSE 12 19 29.71 1006 10 16.0934 0 0
9:15 pm 21:15 Clear 82 27.8 53 11.6 37 37 SE 10 17 29.71 1006 10 16.0934 0 0
9:35 pm 21:35 Clear 82 27.5 53 11.9 38 38 SE 9 15 29.71 1006 10 16.0934 0 0
9:55 pm 21:55 Clear 80 26.8 54 12.2 40 40 SE 8 13 29.74 1007 10 16.0934 0 0
10:15 pm 22:15 Clear 79 26.2 55 12.6 43 43 SE 8 13 29.77 1008 10 16.0934 0 0
10:35 pm 22:35 Clear 76 24.4 56 13.4 50 50 WNW 7 11 29.83 1010 10 16.0934 0 0
10:55 pm 22:55 Clear 74 23.4 56 13.4 54 54 NW 14 22 29.83 1010 10 16.0934 0 0
11:15 pm 23:15 Clear 73 22.7 57 13.8 57 57 NNW 14 22 29.85 1011 10 16.0934 0 0
11:35 pm 23:35 Clear 72 22 57 14 61 61 N 5 7 29.88 1012 10 16.0934 0 0
11:55 pm 23:55 Clear with Nearby Thunderstorms 71 21.6 57 14.1 62 62 NE 5 7 29.88 1012 10 16.0934 0 0

Powered by AerisWeather